Location: Astronomy Adventures Observing Site
(35.3995°N, 106.1279°W)
Time: 19:57:44
(UTC-06:00)

Envisat - Pass Details

Date: 23 January 2022
Orbit: 764 x 765 km, 98.2° (Epoch: 27 May)

Event Time Altitude Azimuth Distance (km) Brightness Sun altitude
Rises 04:14:35 0° 23° (NNE) 3,234 6.5 -35.6°
Reaches altitude 10° 04:17:06 10° 32° (NNE) 2,304 5.8 -35.1°
Maximum altitude 04:21:41 34° 97° (E) 1,240 4.5 -34.1°
Drops below altitude 10° 04:26:15 10° 162° (SSE) 2,291 5.6 -33.2°
Sets 04:28:44 0° 171° (S) 3,213 6.3 -32.7°
